Skip Page Navigation
NASA JPL Caltech
NASA Logo - Jet Propulsion Laboratory + View the NASA Portal
+ Center for Near-Earth Object Studies
JPL Home Earth Solar System Stars & Galaxies Technology
JPL Solar System Dynamics
BODIES ORBITS EPHEMERIDES TOOLS PHYSICAL DATA DISCOVERY FAQ SITE MAP
JPL Small-Body Database Browser
Search: [ help ]  
52348 (1993 FH12)
Classification: Main-belt Asteroid          SPK-ID: 2052348
Ephemeris | Orbit Diagram | Orbital Elements | Mission Design | Physical Parameters | Discovery Circumstances ]

[ show orbit diagram ]
Orbital Elements at Epoch 2459200.5 (2020-Dec-17.0) TDB
Reference: JPL 23 (heliocentric ecliptic J2000)
 Element Value Uncertainty (1-sigma)   Units 
e .1486970598805306 4.3199e-08  
a 2.384155024102734 9.2757e-09 au
q 2.029638181719262 9.9653e-08 au
i 3.224015022252603 3.1736e-06 deg
node 105.9074333815442 7.5824e-05 deg
peri 100.4893037674633 7.6543e-05 deg
M 175.1056697199041 1.0817e-05 deg
tp 2458546.469697016303
(2019-Mar-03.96969702)
3.9369e-05 TDB
period 1344.621847200915
3.68
7.847e-06
2.148e-08
d
yr
n .2677332669771862 1.5625e-09 deg/d
Q 2.738671866486206 1.0655e-08 au
  Orbit Determination Parameters
   # obs. used (total)      928  
   data-arc span      10157 days (27.81 yr)  
   first obs. used      1993-03-17  
   last obs. used      2021-01-06  
   planetary ephem.      DE441  
   SB-pert. ephem.      SB441-N16  
   condition code      0  
   norm. resid. RMS      .53429  
   source      ORB  
   producer      Otto Matic  
   solution date      2021-Apr-13 10:44:52  

Additional Information
 Earth MOID = 1.0273 au 
 Jupiter MOID = 2.22264 au 
 T_jup = 3.519 
[ show covariance matrix ]

Ephemeris | Orbit Diagram | Orbital Elements | Mission Design | Physical Parameters | Discovery Circumstances ]

Physical Parameter Table
Parameter Symbol Value Units Sigma Reference Notes
absolute magnitude H 15.83   n/a MPCxxxxx  

52348 (1993 FH12)          Discovered 1993-Mar-17 by UESAC at La Silla
Reference: 20030216/Numbers.arcLast Updated: 2004-04-19

Alternate Designations
 1993 FH12 = 2000 AD57 
Ephemeris | Orbit Diagram | Orbital Elements | Mission Design | Physical Parameters | Discovery Circumstances ]
ABOUT SSD CREDITS/AWARDS PRIVACY/COPYRIGHT GLOSSARY LINKS
FirstGov 2021-Jun-20 20:19 UT
(server date/time)  
NASA Home Page
Site Manager:   Ryan S. Park
Webmaster  Alan B. Chamberlin